STARLINK-32862, 62864

Orbit data source: Space-Track

STARLINK-32862, 62864 is a payload satellite owned by SpaceX/Seattle (US) in LEO that was launched on Sat, 01 Feb 2025 UTC via an FALCON 9 launch vehicle from the Air Force Western Test Range (AFWTR). Payload-class satellites include a variety of spacecraft equipped with specific instruments for various scientific and technological missions. These include communications satellites like Starlink; space stations such as the ISS; scientific satellites like the Hubble; Earth observation satellites from companies like Planet Labs, Umbra, and HawkEye 360; GPS; miniature CubeSats for education and research; and military/defense satellites.

Loading next visibility...
Identifier
62864, 2025-022L
Orbit
LEO
Country
Flag of USUS
Related business
Manufacturer
SpaceX/Seattle
Mission
Operational Commercial Communications
Bus & Motor
STARLINK V2M, Unknown motor
Mass
730 kg wet, ~700 kg dry
Launch date (UTC)
2025-02-01 (9 months ago)
Launch vehicle
FALCON 9
Launch site
Air Force Western Test Range (AFWTR)
Object type
Payload
Rocket body
Debris
Shape & HBR
Box + 2 Pan, 17.7 m
Radar Cross Section
33.884 m², Large (>1 m²)

Expand to show TLE details & history
Last TLE update: 1 day ago

TLE from 1 day ago
0 STARLINK-32862
1 62864U 25022L   25304.54100883  .00043093  00000-0  14626-2 0  9990
2 62864  53.1585   9.7276 0001216  95.2210 264.8930 15.30113473 42124
Epoch: 2025-10-31T12:59Z
TLE epoch observation values (Epoch: 2025-10-31T12:59:03.162Z)
Latitude
-0°
Longitude
134.88046°
Altitude
476.447 km
Speed
7.629 km/s
True Right ascension
00h 38m 54s
True Declination
0° 00' 00"
Sunlit
Object was in full shadow at epoch
Visualization orbit readout
Latitude
Unknown
Longitude
Unknown
Altitude
Unknown
Speed
Unknown
Apparent Right ascension
Unknown
Apparent Declination
Unknown
Sunlit
N/A
Visualization observer readout
Local Sidereal Time
13:29:47
Azimuth
Unknown
Elevation
Unknown
Doppler factor
Unknown
Orbital elements
Apogee altitude
476.564 km
Perigee altitude
474.897 km
Semi-major axis
6,853.867 km
Eccentricity
0.00012
Inclination
53.1585°
RAAN
9.7276°
Arg. of periapsis
95.221°
True anomaly
264.87912°
Mean anomaly
264.893°
Eccentric anomaly
264.88606°
Mean motion
3.82507 °/min
Orbital period
94.12 mins
BSTAR
0.0014626
Loading maneuver chart data...
Computing Atmospheric mass density...
Loading historical data...
Loading historical data...
Loading historical data...
Loading historical data...
Loading historical data...
Loading historical data...
Loading historical data...

Documentation

Showing up to 5 results
|